Regional Weather Roundup
Issued by NWS

Home | Current Version | Previous Version | Graphics & Text | Print | Product List | Glossary On
Versions: 1 2 3 4 5 6 7 8 9 10 11 12 13 14 15 16 17 18 19 20 21 22 23 24 25 26 27 28 29 30 31 32 33 34 35 36 37 38 39 40 41 42 43 44 45 46 47 48 49
000
ASUS45 KBOU 232307
RWRCO

WEATHER ROUNDUP FOR COLORADO
NATIONAL WEATHER SERVICE DENVER/BOULDER CO
500 PM MDT WED JUL 23 2014

NOTE: "FAIR" INDICATES FEW OR NO CLOUDS BELOW 12000 FEET WITH NO
SIGNIFICANT WEATHER AND/OR OBSTRUCTIONS TO VISIBILITY.

COZ001>005-013-030-031-240000-
...NORTHWEST COLORADO...

CITY           SKY/WX    TMP DP  RH WIND       PRES   REMARKS
CRAIG          PTSUNNY   91  35  13 W10G20    30.24F
HAYDEN         PTSUNNY   88  39  18 SE10      30.28F
MEEKER         MOSUNNY   95  32  11 MISG      30.26F
MOUNT WERNER   NOT AVBL
STEAMBOAT SPGS PTSUNNY   86  42  20 E6        30.31F
WALDEN         PTSUNNY   81  34  18 SW10G20   30.43F
$$

COZ006>008-011-240000-
...WEST CENTRAL VALLEYS...

CITY           SKY/WX    TMP DP  RH WIND       PRES   REMARKS
GRAND JUNCTION MOSUNNY   97  33  10 CALM      30.10F
MONTROSE       CLOUDY    92  37  14 MISG      30.23F
EAGLE          PTSUNNY   88  45  22 NE20      30.30F THUNDER
RIFLE          MOSUNNY   98  32  10 W9        30.16F
DELTA          CLOUDY    98  37  12 S16G23    30.18S
NUCLA          CLOUDY    95  39  14 E13       30.26F
$$

COZ017>023-064>068-240000-
...SOUTHWEST COLORADO...

CITY           SKY/WX    TMP DP  RH WIND       PRES   REMARKS
DURANGO        MOSUNNY   91  30  11 SW5       30.31F
CORTEZ         SUNNY     97  31   9 S9G16     30.23F
PAGOSA SPRINGS MOSUNNY   88  27  11 S9        30.41F
TELLURIDE      PTSUNNY   73  45  35 CALM      30.53F
WOLF CREEK PAS NOT AVBL
$$

COZ009-010-012-014-032>034-037-058>063-240000-
...CENTRAL COLORADO...

CITY           SKY/WX    TMP DP  RH WIND       PRES   REMARKS
ASPEN          LGT RAIN  71  49  45 SE15G26   30.44R
BUENA VISTA    PTSUNNY   81  34  18 NW15G26   30.46F
COPPER MTN     PTSUNNY   61  32  33 S7        30.87S THUNDER
BERTHOUD PASS  CLOUDY    50  36  57 MISG      30.90F
COTTONWOOD PAS PTSUNNY   77  34  20 CALM      30.64F
GUNNISON       PTSUNNY   82  34  17 SE7       30.42F
KREMMLING      TSTM      75  37  25 N14G24    30.43S
LEADVILLE      LGT RAIN  58  47  66 VRB5      30.68F
MONARCH PASS   PTSUNNY   63  32  31 E22G28    30.90F
SALIDA         PTSUNNY  N/A N/A N/A E6        30.48R
SUNLIGHT       MOSUNNY   77  36  22 W5        30.70F
WILKERSON PASS LGT RAIN  59  36  41 SE6       30.83R
$$

COZ069>075-240000-
...SAN LUIS VALLEY/SANGRE DE CRISTO MOUNTAINS...

CITY           SKY/WX    TMP DP  RH WIND       PRES   REMARKS
ALAMOSA        MOSUNNY   87  39  18 W7        30.40F
LA VETA PASS   PTSUNNY   75  43  31 E17G23    30.67F
SAGUACHE       MOSUNNY   86  32  14 S6        30.44F
$$

COZ035-036-038>040-240000-
...NORTHERN COLORADO FRONT RANGE...

CITY           SKY/WX    TMP DP  RH WIND       PRES   REMARKS
DENVER INTL AP CLOUDY    88  43  20 S35G49    30.28S
DMNS CITY PARK   N/A     82  47  30 SW10G17   30.31R
AURORA         PTSUNNY   78  45  31 E7G37     30.34R
FRONT RANGE AP NOT AVBL
ERIE MUNI ARPT PTSUNNY   86  44  22 SW15G21   30.27S
BOULDER MUN AP PTSUNNY   88  45  22 S6        30.29F
CENTENNIAL     CLOUDY    83  39  21 VRB6G18   30.35R THUNDER
BROOMFIELD     PTSUNNY   84  46  26 S17       30.33R
FORT COLLINS   CLOUDY    84  61  45 S13       30.23S
LONGMONT       CLOUDY    86  53  32 SW5       30.28F
$$

COZ041-046-047-076>085-087-088-240000-
...PIKES PEAK/PALMER DIVIDE AND SOUTHERN FOOTHILLS...

CITY           SKY/WX    TMP DP  RH WIND       PRES   REMARKS
COLO. SPRINGS  PTSUNNY   89  41  18 SE16      30.35F
A. F. ACADEMY  PTSUNNY   85  39  19 S20G25    30.36F
ELLICOTT       MOSUNNY   87  45  23 S14       30.34F
FALCON         MOSUNNY   83  41  22 SE16G22   30.43S
FORT CARSON    MOSUNNY   90  40  17 SE17      30.32F
LIMON          MOSUNNY   86  59  39 SE21G28   30.30S
MONUMENT HILL  PTSUNNY   77  41  27 NW8       30.44R
TRINIDAD       TSTM      85  45  24 SE25G39   30.30S
$$

COZ042>045-048>051-090-091-240000-
...NORTHEAST COLORADO...

CITY           SKY/WX    TMP DP  RH WIND       PRES   REMARKS
GREELEY ARPT   CLOUDY    84  63  48 W8        30.23S
AKRON          SUNNY     91  57  31 S25       30.21F
BURLINGTON     SUNNY     88  62  41 S15G24    30.22F
WRAY             N/A     96  55  24 S14G22    30.17F
STERLING       SUNNY     95  68  41 S17       30.14F
HOLYOKE        SUNNY     95  63  34 S15       30.16F
FORT MORGAN    SUNNY     89  60  36 SE18G26   30.18F
$$

COZ086-089-092>099-240000-
...SOUTHEAST COLORADO...

CITY           SKY/WX    TMP DP  RH WIND       PRES   REMARKS
PUEBLO         SUNNY     94  51  23 SE16G23   30.20F
LA JUNTA       PTSUNNY   94  63  35 E22G29    30.17F
LAMAR          CLOUDY    92  64  39 SE24G31   30.14F
SPRINGFIELD      N/A     92  51  24 SE18G28   30.21F
$$


USA.gov is the U.S. government's official web portal to all federal, state and local government web resources and services.